CZ-6A DEB, 54596

Orbit data source: Space-Track

CZ-6A DEB, 54596 is space debris in SSO originally from a launch on Fri, 11 Nov 2022 UTC launched from the Taiyaun Space Center, China (TSC). Debris objects in space refer to the collection of defunct objects orbiting the Earth. Examples of debris include non-operational satellites, rocket bodies, and fragments generated from explosions, collisions, or faulty payload assembly.

Loading next visibility...
Identifier
54596, 2022-151MW
Orbit
SSO
Country
Flag of CNCN / PRC
Related business
Manufacturer
SAST
Mission
Spacecraft
Bus & Motor
Unknown
Mass
Unknown
Launch date (UTC)
2022-11-11 (4 years ago)
Launch vehicle
Unknown
Launch site
Taiyaun Space Center, China (TSC)
Object type
Payload
Rocket body
Debris
Shape & HBR
Unknown shape, 0.2 m
Radar Cross Section
Medium (>0.1 m² and <1 m²)

Expand to show TLE details & history
Last TLE update: 3 days ago

TLE from 3 days ago
0 CZ-6A DEB
1 54596U 22151MW  26170.49324706  .00000271  00000-0  17255-3 0  9994
2 54596  98.8424 173.8634 0041483 327.7749  32.0888 14.11494611184900
Epoch: 2026-06-19T11:50Z
TLE epoch observation values (Epoch: 2026-06-19T11:50:16.545Z)
Latitude
-0.00009°
Longitude
88.57305°
Altitude
831.772 km
Speed
7.45 km/s
True Right ascension
11h 35m 27s
True Declination
0° 00' 00"
Sunlit
Object was in daylight at epoch
Visualization orbit readout
Latitude
Unknown
Longitude
Unknown
Altitude
Unknown
Speed
Unknown
Apparent Right ascension
Unknown
Apparent Declination
Unknown
Sunlit
N/A
Visualization observer readout
Local Sidereal Time
21:24:26
Azimuth
Unknown
Elevation
Unknown
Doppler factor
Unknown
Orbital elements
Apogee altitude
881.428 km
Perigee altitude
821.448 km
Semi-major axis
7,229.575 km
Eccentricity
0.00415
Inclination
98.8424°
RAAN
173.8634°
Arg. of periapsis
327.7749°
True anomaly
32.34244°
Mean anomaly
32.0888°
Eccentric anomaly
32.21551°
Mean motion
3.53081 °/min
Orbital period
101.96 mins
BSTAR
0.00017255
Loading maneuver chart data...
Computing Atmospheric mass density...
Loading historical data...
Loading historical data...
Loading historical data...
Loading historical data...
Loading historical data...
Loading historical data...
Loading historical data...

Documentation

Showing up to 5 results
|